Regional Weather Roundup
Issued by NWS

Home | Current Version | Previous Version | Text Only | Print | Product List | Glossary On
Versions: 1 2 3 4 5 6 7 8 9 10 11 12 13 14 15 16 17 18 19 20 21 22 23 24 25 26 27 28 29 30 31 32 33 34 35 36 37 38 39 40 41 42 43 44 45 46 47 48 49 50
000
ASUS43 KLSX 281159
RWRMO

WEATHER SUMMARY FOR MISSOURI
NATIONAL WEATHER SERVICE SPRINGFIELD MO
700 AM CDT SAT MAR 28 2015

NOTE: "FAIR" INDICATES FEW OR NO CLOUDS BELOW 12,000 FEET WITH NO
       SIGNIFICANT WEATHER AND/OR OBSTRUCTIONS TO VISIBILITY.
       CURRENT SKY AND/OR WEATHER CONDITIONS ARE NOT AVAILABLE FOR
       CHILLICOTHE AND FARMINGTON.

MOZ001>031-035>038-043-044-053-054-281300-
...NORTHERN AND WESTERN MISSOURI...

CITY           SKY/WX    TMP DP  RH WIND       PRES   REMARKS
KANSAS CTY INT CLOUDY    36  28  73 E13       30.13R WCI  27
6HR MIN TEMP:  36; 6HR MAX TEMP:  39;

KANSAS C DTWN  CLOUDY    38  27  64 E10       30.15R
6HR MIN TEMP:  38; 6HR MAX TEMP:  41;

LEE`S SUMMIT   CLOUDY    36  27  69 E12       30.14R WCI  28
6HR MIN TEMP:  36; 6HR MAX TEMP:  39;

ST JOSEPH      CLOUDY    35  28  75 SE9       30.15R WCI  28
6HR MIN TEMP:  35; 6HR MAX TEMP:  38;

CHILLICOTHE      N/A     33  27  78 E7        30.21R WCI  27
6HR MIN TEMP:  33; 6HR MAX TEMP:  39;

KIRKSVILLE     CLOUDY    30  20  66 SE7       30.22R WCI  23
6HR MIN TEMP:  28; 6HR MAX TEMP:  31;


$$
MOZ066>068-077>081-088>096-101>105-281300-
...SOUTHWEST MISSOURI...

CITY           SKY/WX    TMP DP  RH WIND       PRES   REMARKS
SPRINGFIELD    CLOUDY    39  23  52 SE12      30.13R
6HR MIN TEMP:  39; 6HR MAX TEMP:  41;

JOPLIN         CLOUDY    41  28  60 E7        30.09S
6HR MIN TEMP:  38; 6HR MAX TEMP:  42;


$$
MOZ032>034-039>042-045>050-055>058-069>072-281300-
...CENTRAL MISSOURI...

CITY           SKY/WX    TMP DP  RH WIND       PRES   REMARKS
COLUMBIA       CLOUDY    32  21  64 SE6       30.21R WCI  26
6HR MIN TEMP:  32; 6HR MAX TEMP:  36;

JEFFERSON CITY CLOUDY    34  23  64 E6        30.23R WCI  29
6HR MIN TEMP:  34; 6HR MAX TEMP:  37;

ROLLA          CLOUDY    31  23  72 SE7       30.19R WCI  24
6HR MIN TEMP:  31; 6HR MAX TEMP:  33;

SEDALIA        CLOUDY    35  30  82 SE6       30.19R
6HR MIN TEMP:  34; 6HR MAX TEMP:  40; 6HR PCP:  0.01;

WHITEMAN AFB   FLURRIES  36  30  80 E8        30.16R WCI  29
OSAGE BEACH    CLOUDY    34  28  80 SE6       30.20R WCI  29

$$
MOZ051-052-059>065-281300-
...EAST CENTRAL MISSOURI...

CITY           SKY/WX    TMP DP  RH WIND       PRES   REMARKS
ST LOUIS INTL  MOCLDY    30  17  58 E7        30.26R WCI  23
6HR MIN TEMP:  28; 6HR MAX TEMP:  32;

SPIRIT OF STL  PTCLDY    27  21  78 CALM      30.26R
6HR MIN TEMP:  26; 6HR MAX TEMP:  30;

ST CHARLES     PTCLDY    29  21  72 E6        30.26R WCI  23
6HR MIN TEMP:  28; 6HR MAX TEMP:  30;


$$
MOZ072>076-082>087-097>100-106>115-281300-
...SOUTH CENTRAL AND SOUTHEAST MISSOURI...

CITY           SKY/WX    TMP DP  RH WIND       PRES   REMARKS
CAPE GIRARDEAU NOT AVBL
FARMINGTON     PTCLDY    27  21  80 CALM      30.25R
6HR MIN TEMP:  27; 6HR MAX TEMP:  28;

POPLAR BLUFF   CLOUDY    32  28  85 CALM      30.24R
6HR MIN TEMP:  31; 6HR MAX TEMP:  36;

WEST PLAINS    LGT SNOW  34  25  69 SE6       30.20R WCI  29
6HR MIN TEMP:  34; 6HR MAX TEMP:  37; 6HR PCP: TRACE;


$$


USA.gov is the U.S. government's official web portal to all federal, state and local government web resources and services.